Regional Weather Roundup
Issued by NWS New Orleans/Baton Rouge, LA

Home | Current Version | Previous Version | Text Only | Print | Product List | Glossary Off
Versions: 1 2 3 4 5 6 7 8 9 10 11 12 13 14 15 16 17 18 19 20 21 22 23 24 25 26 27 28 29 30 31 32 33 34 35 36 37 38 39 40 41 42 43 44 45 46 47 48 49 50

760
ASUS44 KLIX 201410
RWRLIX
NEW ORLEANS REGIONAL WEATHER ROUNDUP
NATIONAL WEATHER SERVICE NEW ORLEANS LA
900 AM CDT SUN APR 20 2014

NOTE: "FAIR" INDICATES FEW OR NO CLOUDS BELOW 12,000 FEET WITH NO
      SIGNIFICANT WEATHER AND/OR OBSTRUCTIONS TO VISIBILITY.
      SKY/WX - SKY CONDITION AND SIGNIFICANT WEATHER.
      TMP - AIR TEMPERATURE.     DP    - DEWPOINT TEMPERATURE.
      RH  - RELATIVE HUMIDITY.   PRES  - PRESSURE.
      HI  - HEAT INDEX.          WCI   - WIND CHILL INDEX.

*  THESE STATIONS ARE NOT NWS OR FAA STATIONS AND ARE NOT UNDER
   NWS QUALITY CONTROL.

LAZ038-040-048-061>063-065>067-069-201500-
SOUTHEAST LOUISIANA

CITY           SKY/WX    TMP DP  RH WIND       PRES   REMARKS
N.O. AUDUBON     N/A     70  60  70 MISG        N/A
N.O. INTL ARPT MOSUNNY   69  60  73 E7        30.18R
N.O. LAKEFRONT SUNNY     69  60  73 E9        30.18R
N.O. DOWNTOWN*   N/A     72  55  56 CALM      30.18R
SLIDELL        SUNNY     66  59  78 E6        30.17S
BATON ROUGE    SUNNY     68  54  60 NE5       30.18R
BOOTHVILLE     SUNNY     66  62  87 E5        30.18R
BELLE CHASSE   MOSUNNY   70  61  73 SE8       30.17R
BOGALUSA*        N/A     66  56  69 E3        30.21S
GALLIANO*      SUNNY     70  62  75 CALM      30.17R
NEW ROADS*       N/A     67  56  68 NE3       30.18S
GONZALES*        N/A     67  55  66 CALM      30.17S
HAMMOND*       SUNNY     68  55  64 CALM      30.20R
HOUMA*         SUNNY     68  57  68 CALM      30.18
PORT FOURCHON* SUNNY     70  63  78 CALM      30.18R HAZE

$$

MSZ070-080>082-201500-
SOUTHERN MISSISSIPPI

CITY           SKY/WX    TMP DP  RH WIND       PRES   REMARKS
MCCOMB         SUNNY     63  54  72 E6        30.20R
GULFPORT       SUNNY     68  54  60 NE9       30.18F
BILOXI         SUNNY     65  54  68 E9        30.18F
PASCAGOULA     SUNNY     64  54  69 NE10      30.19S
STENNIS ARPT*  SUNNY     64  54  68 NE7       30.18F

$$

COASTAL OBSERVATIONS
LAKE AND NEARSHORE STATIONS

STATION/POSITION TIME  TEMP    WIND        PRES    WAVE
                       AIR SEA DIR/SP/G            HT/PER
                 (UTC) (F)     (DEG/KT/KT) (MB)    (FT/S)
PASCAGOULA       1400   64      20/  7/  9 1021.4
WAVELAND YACHT   1400   65 68   80/  8/  9 1021.2
GRAND ISLE       1400   69 68  110/  5/  7 1021.7
SOUTHWEST PASS   1400   65 58   70/  7/  9 1021.8
NEW CANAL        1400   69 66  110/  2/  6 1022.0
SHELL BEACH      1400   67 65   80/ 11/ 13 1021.4

OFFSHORE STATIONS

STATION/POSITION TIME  TEMP    WIND        PRES    WAVE
                       AIR SEA DIR/SP/G            HT/PER
                 (UTC) (F)     (DEG/KT/KT) (MB)    (FT/S)
64 S DAUPHIN ISL 1347   65 71   20/ 12/ 14 1021.3

$$




USA.gov is the U.S. government's official web portal to all federal, state and local government web resources and services.